| time (UTC) | temp F | wind direction | speed MPH | gust MPH | rain 1hr in | rain 24hr in | rain mn in | humidity % | barometer mb |
| 20260904195551 | 76 | 0 | 0.0 | 7.0 | 0.00 | 0.00 | 0.00 | 58 | 1009.4 |
| 20260904195051 | 77 | 322 | 0.0 | 7.0 | 0.00 | 0.00 | 0.00 | 58 | 1009.4 |
| 20260904194559 | 78 | 0 | 0.0 | 9.0 | 0.00 | 0.00 | 0.00 | 58 | 1009.3 |
| 20260904194052 | 78 | 0 | 1.0 | 9.0 | 0.00 | 0.00 | 0.00 | 59 | 1009.3 |
| 20260904193552 | 77 | 0 | 0.0 | 6.0 | 0.00 | 0.00 | 0.00 | 56 | 1009.4 |
| 20260904193103 | 78 | 0 | 1.0 | 6.0 | 0.00 | 0.00 | 0.00 | 58 | 1009.5 |
| 20260904192551 | 78 | 0 | 0.0 | 8.0 | 0.00 | 0.00 | 0.00 | 58 | 1009.6 |
| 20260904192051 | 78 | 0 | 1.0 | 11.0 | 0.00 | 0.00 | 0.00 | 56 | 1009.5 |
| 20260904191601 | 78 | 299 | 3.0 | 11.0 | 0.00 | 0.00 | 0.00 | 54 | 1009.5 |
| 20260904191052 | 77 | 289 | 3.0 | 12.0 | 0.00 | 0.00 | 0.00 | 55 | 1009.4 |
| 20260904190551 | 77 | 0 | 2.0 | 12.0 | 0.00 | 0.00 | 0.00 | 55 | 1009.4 |
| 20260904190104 | 77 | 296 | 0.0 | 11.0 | 0.00 | 0.00 | 0.00 | 54 | 1009.4 |
| 20260904185551 | 77 | 254 | 1.0 | 12.0 | 0.00 | 0.00 | 0.00 | 56 | 1009.3 |
| 20260904185052 | 77 | 0 | 1.0 | 12.0 | 0.00 | 0.00 | 0.00 | 58 | 1009.3 |
| 20260904184603 | 77 | 0 | 0.0 | 6.0 | 0.00 | 0.00 | 0.00 | 58 | 1009.5 |
| 20260904184052 | 77 | 0 | 0.0 | 6.0 | 0.00 | 0.00 | 0.00 | 56 | 1009.4 |
| 20260904183552 | 77 | 0 | 0.0 | 7.0 | 0.00 | 0.00 | 0.00 | 59 | 1009.6 |
| 20260904183101 | 75 | 0 | 1.0 | 7.0 | 0.00 | 0.00 | 0.00 | 60 | 1009.8 |
| 20260904182552 | 75 | 0 | 1.0 | 8.0 | 0.00 | 0.00 | 0.00 | 60 | 1009.9 |
| 20260904182051 | 75 | 309 | 1.0 | 9.0 | 0.00 | 0.00 | 0.00 | 61 | 1009.8 |
| 20260904181559 | 75 | 335 | 0.0 | 9.0 | 0.00 | 0.00 | 0.00 | 59 | 1009.8 |
| 20260904181052 | 75 | 53 | 0.0 | 10.0 | 0.00 | 0.00 | 0.00 | 58 | 1009.7 |
| 20260904180554 | 75 | 0 | 1.0 | 13.0 | 0.00 | 0.00 | 0.00 | 58 | 1009.7 |
| 20260904180116 | 76 | 0 | 2.0 | 13.0 | 0.00 | 0.00 | 0.00 | 57 | 1009.4 |
| 20260904175552 | 76 | 320 | 2.0 | 13.0 | 0.00 | 0.00 | 0.00 | 60 | 1009.5 |
| 20260904175049 | 77 | 0 | 1.0 | 11.0 | 0.00 | 0.00 | 0.00 | 58 | 1009.6 |
| 20260904174610 | 77 | 0 | 0.0 | 13.0 | 0.00 | 0.00 | 0.00 | 55 | 1009.5 |
| 20260904174053 | 78 | 0 | 3.0 | 13.0 | 0.00 | 0.00 | 0.00 | 55 | 1009.4 |
| 20260904173551 | 78 | 238 | 1.0 | 11.0 | 0.00 | 0.00 | 0.00 | 55 | 1009.5 |
| 20260904173108 | 78 | 0 | 0.0 | 11.0 | 0.00 | 0.00 | 0.00 | 54 | 1009.5 |
| 20260904172551 | 77 | 0 | 0.0 | 13.0 | 0.00 | 0.00 | 0.00 | 58 | 1009.7 |
| 20260904172052 | 77 | 0 | 1.0 | 13.0 | 0.00 | 0.00 | 0.00 | 58 | 1009.7 |
| 20260904171608 | 77 | 0 | 3.0 | 13.0 | 0.00 | 0.00 | 0.00 | 57 | 1009.7 |
| 20260904171052 | 78 | 0 | 3.0 | 13.0 | 0.00 | 0.00 | 0.00 | 55 | 1009.6 |
| 20260904170550 | 77 | 0 | 2.0 | 10.0 | 0.00 | 0.00 | 0.00 | 56 | 1009.5 |
| 20260904165551 | 77 | 0 | 3.0 | 12.0 | 0.00 | 0.00 | 0.00 | 56 | 1009.8 |
| 20260904165052 | 78 | 254 | 2.0 | 11.0 | 0.00 | 0.00 | 0.00 | 54 | 1009.7 |
| 20260904164601 | 78 | 0 | 2.0 | 10.0 | 0.00 | 0.00 | 0.00 | 58 | 1009.8 |
| 20260904164052 | 77 | 0 | 2.0 | 11.0 | 0.00 | 0.00 | 0.00 | 58 | 1009.6 |
| 20260904163551 | 76 | 0 | 2.0 | 11.0 | 0.00 | 0.00 | 0.00 | 60 | 1009.7 |
| 20260904163100 | 76 | 0 | 0.0 | 6.0 | 0.00 | 0.00 | 0.00 | 62 | 1009.9 |
| 20260904162551 | 76 | 0 | 0.0 | 1.0 | 0.00 | 0.00 | 0.00 | 60 | 1009.8 |
| 20260904162052 | 76 | 0 | 0.0 | 3.0 | 0.00 | 0.00 | 0.00 | 66 | 1009.9 |
| 20260904161622 | 75 | 0 | 0.0 | 4.0 | 0.00 | 0.00 | 0.00 | 64 | 1009.9 |
| 20260904161050 | 75 | 0 | 0.0 | 4.0 | 0.00 | 0.00 | 0.00 | 66 | 1009.9 |
| 20260904160552 | 74 | 0 | 0.0 | 4.0 | 0.00 | 0.00 | 0.00 | 66 | 1009.9 |
| 20260904160107 | 74 | 0 | 0.0 | 7.0 | 0.00 | 0.00 | 0.00 | 67 | 1009.9 |
| 20260904155553 | 74 | 0 | 0.0 | 7.0 | 0.00 | 0.00 | 0.00 | 67 | 1010.1 |
| 20260904155052 | 74 | 299 | 0.0 | 7.0 | 0.00 | 0.00 | 0.00 | 65 | 1009.9 |
| 20260904154600 | 75 | 0 | 1.0 | 7.0 | 0.00 | 0.00 | 0.00 | 65 | 1010.1 |
| 20260904154051 | 75 | 271 | 0.0 | 7.0 | 0.00 | 0.00 | 0.00 | 65 | 1010.0 |
| 20260904153551 | 74 | 0 | 0.0 | 7.0 | 0.00 | 0.00 | 0.00 | 70 | 1010.1 |
| 20260904153129 | 74 | 0 | 0.0 | 3.0 | 0.00 | 0.00 | 0.00 | 70 | 1010.2 |
| 20260904152550 | 74 | 0 | 0.0 | 0.0 | 0.00 | 0.00 | 0.00 | 72 | 1010.2 |
| 20260904152052 | 74 | 0 | 0.0 | 0.0 | 0.00 | 0.00 | 0.00 | 72 | 1010.3 |
| 20260904151606 | 72 | 0 | 0.0 | 0.0 | 0.00 | 0.00 | 0.00 | 76 | 1010.3 |
| 20260904151054 | 72 | 0 | 0.0 | 0.0 | 0.00 | 0.00 | 0.00 | 75 | 1010.1 |
| 20260904150552 | 72 | 0 | 0.0 | 0.0 | 0.00 | 0.00 | 0.00 | 76 | 1010.1 |
| 20260904145551 | 72 | 0 | 0.0 | 0.0 | 0.00 | 0.00 | 0.00 | 76 | 1009.9 |
| 20260904145055 | 73 | 0 | 0.0 | 5.0 | 0.00 | 0.00 | 0.00 | 76 | 1010.0 |
| 20260904144601 | 73 | 0 | 0.0 | 5.0 | 0.00 | 0.00 | 0.00 | 74 | 1010.1 |
| 20260904144051 | 73 | 250 | 0.0 | 1.0 | 0.00 | 0.00 | 0.00 | 74 | 1010.1 |
| 20260904143552 | 73 | 0 | 0.0 | 6.0 | 0.00 | 0.00 | 0.00 | 76 | 1010.1 |
| 20260904143105 | 73 | 0 | 0.0 | 6.0 | 0.00 | 0.00 | 0.00 | 77 | 1010.2 |
| 20260904142553 | 72 | 0 | 0.0 | 1.0 | 0.00 | 0.00 | 0.00 | 79 | 1010.3 |
| 20260904142052 | 73 | 0 | 0.0 | 0.0 | 0.00 | 0.00 | 0.00 | 77 | 1010.3 |
| 20260904141604 | 72 | 0 | 0.0 | 0.0 | 0.00 | 0.00 | 0.00 | 78 | 1010.2 |
| 20260904141050 | 71 | 0 | 0.0 | 1.0 | 0.00 | 0.00 | 0.00 | 80 | 1010.4 |
| 20260904140551 | 71 | 0 | 0.0 | 1.0 | 0.00 | 0.00 | 0.00 | 79 | 1010.2 |
| 20260904140104 | 71 | 0 | 0.0 | 1.0 | 0.00 | 0.00 | 0.00 | 81 | 1010.3 |
| 20260904135550 | 71 | 0 | 0.0 | 0.0 | 0.00 | 0.00 | 0.00 | 80 | 1010.3 |
| 20260904135050 | 71 | 0 | 0.0 | 0.0 | 0.00 | 0.00 | 0.00 | 82 | 1010.4 |
| 20260904134607 | 70 | 0 | 0.0 | 0.0 | 0.00 | 0.00 | 0.00 | 81 | 1010.3 |
| 20260904134051 | 70 | 0 | 0.0 | 0.0 | 0.00 | 0.00 | 0.00 | 82 | 1010.2 |
| 20260904133551 | 70 | 0 | 0.0 | 0.0 | 0.00 | 0.00 | 0.00 | 82 | 1010.2 |
| 20260904133104 | 70 | 0 | 0.0 | 0.0 | 0.00 | 0.00 | 0.00 | 85 | 1010.3 |
| 20260904132552 | 69 | 0 | 0.0 | 0.0 | 0.00 | 0.00 | 0.00 | 84 | 1010.3 |
| 20260904132050 | 68 | 0 | 0.0 | 0.0 | 0.00 | 0.00 | 0.00 | 85 | 1010.3 |
| 20260904131635 | 68 | 0 | 0.0 | 0.0 | 0.00 | 0.00 | 0.00 | 87 | 1010.3 |
| 20260904131052 | 67 | 0 | 0.0 | 0.0 | 0.00 | 0.00 | 0.00 | 87 | 1010.3 |
| 20260904130551 | 67 | 0 | 0.0 | 0.0 | 0.00 | 0.00 | 0.00 | 88 | 1010.6 |
| 20260904125551 | 66 | 0 | 0.0 | 0.0 | 0.00 | 0.02 | 0.00 | 90 | 1010.3 |
| 20260904125052 | 65 | 0 | 0.0 | 0.0 | 0.00 | 0.02 | 0.00 | 92 | 1010.4 |
| 20260904124556 | 65 | 0 | 0.0 | 0.0 | 0.00 | 0.02 | 0.00 | 92 | 1010.5 |
| 20260904124053 | 64 | 0 | 0.0 | 0.0 | 0.00 | 0.02 | 0.00 | 94 | 1010.6 |
| 20260904123551 | 64 | 0 | 0.0 | 0.0 | 0.00 | 0.02 | 0.00 | 95 | 1010.6 |
| 20260904123101 | 63 | 0 | 0.0 | 0.0 | 0.00 | 0.02 | 0.00 | 95 | 1010.7 |
| 20260904122551 | 63 | 0 | 0.0 | 0.0 | 0.00 | 0.02 | 0.00 | 96 | 1010.6 |
| 20260904122052 | 63 | 0 | 0.0 | 0.0 | 0.00 | 0.02 | 0.00 | 96 | 1010.7 |
| 20260904121600 | 62 | 0 | 0.0 | 0.0 | 0.00 | 0.02 | 0.00 | 97 | 1010.7 |
| 20260904121051 | 62 | 0 | 0.0 | 0.0 | 0.00 | 0.02 | 0.00 | 97 | 1010.8 |
| 20260904120552 | 62 | 0 | 0.0 | 0.0 | 0.00 | 0.02 | 0.00 | 96 | 1010.7 |
| 20260904120103 | 62 | 0 | 0.0 | 0.0 | 0.00 | 0.02 | 0.00 | 97 | 1010.9 |
| 20260904115552 | 62 | 0 | 0.0 | 0.0 | 0.00 | 0.02 | 0.00 | 97 | 1010.7 |
| 20260904115052 | 61 | 0 | 0.0 | 0.0 | 0.00 | 0.02 | 0.00 | 97 | 1010.6 |
| 20260904114558 | 61 | 0 | 0.0 | 0.0 | 0.00 | 0.02 | 0.00 | 97 | 1010.7 |
| 20260904114051 | 61 | 0 | 0.0 | 0.0 | 0.00 | 0.02 | 0.00 | 96 | 1010.8 |
| 20260904113551 | 61 | 0 | 0.0 | 0.0 | 0.00 | 0.02 | 0.00 | 96 | 1010.7 |
| 20260904113057 | 61 | 0 | 0.0 | 0.0 | 0.00 | 0.02 | 0.00 | 96 | 1010.8 |
| 20260904112550 | 61 | 0 | 0.0 | 0.0 | 0.00 | 0.02 | 0.00 | 96 | 1010.6 |
| 20260904112051 | 61 | 0 | 0.0 | 0.0 | 0.00 | 0.02 | 0.00 | 96 | 1010.4 |
| 20260904111606 | 61 | 0 | 0.0 | 0.0 | 0.00 | 0.02 | 0.00 | 96 | 1010.2 |
| 20260904111054 | 61 | 0 | 0.0 | 0.0 | 0.00 | 0.02 | 0.00 | 96 | 1010.1 |
| 20260904110552 | 61 | 0 | 0.0 | 0.0 | 0.00 | 0.02 | 0.00 | 96 | 1010.2 |
| 20260904110101 | 61 | 0 | 0.0 | 0.0 | 0.00 | 0.02 | 0.00 | 96 | 1010.2 |
| 20260904105550 | 61 | 0 | 0.0 | 0.0 | 0.00 | 0.04 | 0.00 | 96 | 1010.3 |
| 20260904105051 | 61 | 0 | 0.0 | 0.0 | 0.00 | 0.04 | 0.00 | 96 | 1010.2 |
| 20260904104605 | 61 | 0 | 0.0 | 0.0 | 0.00 | 0.04 | 0.00 | 96 | 1010.2 |
| 20260904104052 | 62 | 0 | 0.0 | 0.0 | 0.00 | 0.04 | 0.00 | 96 | 1010.3 |
| 20260904103551 | 62 | 0 | 0.0 | 0.0 | 0.00 | 0.04 | 0.00 | 96 | 1010.1 |
| 20260904103109 | 62 | 0 | 0.0 | 0.0 | 0.00 | 0.04 | 0.00 | 96 | 1010.1 |
| 20260904102549 | 62 | 0 | 0.0 | 0.0 | 0.00 | 0.04 | 0.00 | 96 | 1010.2 |
| 20260904102052 | 62 | 0 | 0.0 | 0.0 | 0.00 | 0.04 | 0.00 | 96 | 1010.2 |
| 20260904101601 | 62 | 0 | 0.0 | 0.0 | 0.00 | 0.04 | 0.00 | 96 | 1010.3 |
| 20260904101051 | 62 | 0 | 0.0 | 0.0 | 0.00 | 0.04 | 0.00 | 96 | 1010.2 |
| 20260904100551 | 62 | 0 | 0.0 | 0.0 | 0.00 | 0.04 | 0.00 | 96 | 1010.2 |
| 20260904100106 | 62 | 0 | 0.0 | 0.0 | 0.00 | 0.04 | 0.00 | 96 | 1010.0 |
| 20260904095551 | 62 | 0 | 0.0 | 0.0 | 0.00 | 0.06 | 0.00 | 96 | 1010.0 |
| 20260904095050 | 62 | 0 | 0.0 | 0.0 | 0.00 | 0.06 | 0.00 | 96 | 1010.0 |
| 20260904094603 | 62 | 0 | 0.0 | 0.0 | 0.00 | 0.06 | 0.00 | 96 | 1010.1 |
| 20260904094051 | 62 | 0 | 0.0 | 0.0 | 0.00 | 0.06 | 0.00 | 96 | 1010.0 |
| 20260904093552 | 62 | 0 | 0.0 | 0.0 | 0.00 | 0.06 | 0.00 | 96 | 1010.1 |
| 20260904093106 | 62 | 0 | 0.0 | 0.0 | 0.00 | 0.06 | 0.00 | 96 | 1010.1 |
| 20260904092551 | 62 | 0 | 0.0 | 0.0 | 0.00 | 0.06 | 0.00 | 96 | 1010.0 |
| 20260904092051 | 62 | 0 | 0.0 | 0.0 | 0.00 | 0.06 | 0.00 | 96 | 1009.9 |
| 20260904091609 | 62 | 0 | 0.0 | 0.0 | 0.00 | 0.06 | 0.00 | 96 | 1010.0 |
| 20260904091050 | 62 | 0 | 0.0 | 0.0 | 0.00 | 0.06 | 0.00 | 96 | 1010.0 |
| 20260904090551 | 62 | 0 | 0.0 | 0.0 | 0.00 | 0.06 | 0.00 | 96 | 1009.9 |
| 20260904090104 | 62 | 0 | 0.0 | 0.0 | 0.00 | 0.06 | 0.00 | 96 | 1010.1 |
| 20260904085551 | 62 | 0 | 0.0 | 0.0 | 0.00 | 0.08 | 0.00 | 96 | 1010.1 |
| 20260904085053 | 62 | 0 | 0.0 | 0.0 | 0.00 | 0.08 | 0.00 | 96 | 1010.1 |
| 20260904084608 | 62 | 0 | 0.0 | 0.0 | 0.00 | 0.08 | 0.00 | 96 | 1010.1 |
| 20260904084051 | 62 | 0 | 0.0 | 0.0 | 0.00 | 0.08 | 0.00 | 96 | 1010.3 |
| 20260904083552 | 63 | 0 | 0.0 | 0.0 | 0.00 | 0.08 | 0.00 | 96 | 1010.1 |
| 20260904083112 | 63 | 0 | 0.0 | 0.0 | 0.00 | 0.08 | 0.00 | 96 | 1010.3 |
| 20260904082551 | 63 | 0 | 0.0 | 0.0 | 0.00 | 0.08 | 0.00 | 96 | 1010.2 |
| 20260904082052 | 63 | 0 | 0.0 | 1.0 | 0.00 | 0.08 | 0.00 | 96 | 1010.2 |
| 20260904081603 | 63 | 0 | 0.0 | 1.0 | 0.00 | 0.08 | 0.00 | 96 | 1010.3 |
| 20260904081052 | 63 | 0 | 0.0 | 0.0 | 0.00 | 0.08 | 0.00 | 96 | 1010.4 |
| 20260904080551 | 63 | 0 | 0.0 | 0.0 | 0.00 | 0.08 | 0.00 | 96 | 1010.2 |
| 20260904075551 | 63 | 0 | 0.0 | 0.0 | 0.00 | 0.13 | 0.00 | 95 | 1010.1 |
| 20260904075053 | 63 | 0 | 0.0 | 0.0 | 0.00 | 0.13 | 0.00 | 95 | 1010.2 |
| 20260904074610 | 63 | 0 | 0.0 | 0.0 | 0.00 | 0.13 | 0.00 | 96 | 1010.0 |
| 20260904074050 | 63 | 0 | 0.0 | 0.0 | 0.00 | 0.13 | 0.00 | 96 | 1010.0 |
| 20260904073550 | 64 | 0 | 0.0 | 0.0 | 0.00 | 0.13 | 0.00 | 95 | 1010.1 |
| 20260904073101 | 64 | 0 | 0.0 | 0.0 | 0.00 | 0.13 | 0.00 | 95 | 1010.3 |
| 20260904072554 | 64 | 0 | 0.0 | 0.0 | 0.00 | 0.13 | 0.00 | 95 | 1010.3 |
| 20260904072051 | 64 | 0 | 0.0 | 0.0 | 0.00 | 0.13 | 0.00 | 95 | 1010.3 |
| 20260904071558 | 64 | 0 | 0.0 | 0.0 | 0.00 | 0.13 | 0.00 | 95 | 1010.4 |
| 20260904071051 | 64 | 0 | 0.0 | 0.0 | 0.00 | 0.13 | 0.00 | 96 | 1010.4 |
| 20260904070551 | 64 | 0 | 0.0 | 0.0 | 0.00 | 0.13 | 0.00 | 96 | 1010.1 |
| 20260904070126 | 64 | 0 | 0.0 | 4.0 | 0.00 | 0.13 | 0.00 | 96 | 1010.3 |
| 20260904065552 | 64 | 0 | 0.0 | 4.0 | 0.00 | 0.14 | 0.00 | 96 | 1010.4 |
| 20260904065050 | 64 | 0 | 0.0 | 0.0 | 0.00 | 0.14 | 0.00 | 95 | 1010.3 |
| 20260904064556 | 64 | 0 | 0.0 | 0.0 | 0.00 | 0.14 | 0.00 | 95 | 1010.4 |
| 20260904064050 | 64 | 0 | 0.0 | 0.0 | 0.00 | 0.14 | 0.00 | 95 | 1010.4 |
| 20260904063550 | 64 | 0 | 0.0 | 0.0 | 0.00 | 0.14 | 0.00 | 95 | 1010.4 |
| 20260904063105 | 64 | 0 | 0.0 | 0.0 | 0.00 | 0.14 | 0.00 | 95 | 1010.4 |
| 20260904062550 | 64 | 0 | 0.0 | 0.0 | 0.00 | 0.14 | 0.00 | 95 | 1010.4 |
| 20260904062050 | 64 | 0 | 0.0 | 0.0 | 0.00 | 0.14 | 0.00 | 95 | 1010.6 |
| 20260904061600 | 64 | 0 | 0.0 | 0.0 | 0.00 | 0.14 | 0.00 | 95 | 1010.6 |
| 20260904061051 | 64 | 0 | 0.0 | 0.0 | 0.00 | 0.14 | 0.00 | 95 | 1010.4 |
| 20260904060551 | 64 | 0 | 0.0 | 0.0 | 0.00 | 0.14 | 0.00 | 95 | 1010.9 |
| 20260904060107 | 64 | 0 | 0.0 | 0.0 | 0.00 | 0.14 | 0.00 | 95 | 1010.9 |
| 20260904055550 | 64 | 0 | 0.0 | 0.0 | 0.00 | 0.14 | 0.00 | 95 | 1011.0 |
| 20260904055050 | 64 | 0 | 0.0 | 0.0 | 0.00 | 0.14 | 0.00 | 95 | 1011.1 |
| 20260904054602 | 64 | 0 | 0.0 | 0.0 | 0.00 | 0.14 | 0.00 | 95 | 1011.0 |
| 20260904054050 | 64 | 0 | 0.0 | 0.0 | 0.00 | 0.14 | 0.00 | 95 | 1011.3 |
| 20260904053551 | 64 | 0 | 0.0 | 0.0 | 0.00 | 0.14 | 0.00 | 95 | 1011.3 |
| 20260904053059 | 64 | 0 | 0.0 | 0.0 | 0.00 | 0.14 | 0.00 | 95 | 1011.2 |
| 20260904052550 | 64 | 0 | 0.0 | 0.0 | 0.00 | 0.14 | 0.00 | 95 | 1011.4 |
| 20260904052050 | 64 | 0 | 0.0 | 0.0 | 0.00 | 0.14 | 0.00 | 95 | 1011.3 |
| 20260904051558 | 64 | 0 | 0.0 | 0.0 | 0.00 | 0.14 | 0.00 | 95 | 1011.3 |
| 20260904051050 | 64 | 0 | 0.0 | 0.0 | 0.00 | 0.14 | 0.00 | 95 | 1011.2 |
| 20260904050551 | 64 | 0 | 0.0 | 0.0 | 0.00 | 0.14 | 0.00 | 95 | 1011.4 |
| 20260904050100 | 64 | 0 | 0.0 | 0.0 | 0.00 | 0.14 | 0.00 | 95 | 1011.4 |
| 20260904045551 | 64 | 0 | 0.0 | 0.0 | 0.00 | 0.14 | 0.00 | 95 | 1011.4 |
| 20260904045051 | 64 | 0 | 0.0 | 0.0 | 0.00 | 0.14 | 0.00 | 95 | 1011.6 |
| 20260904044606 | 64 | 0 | 0.0 | 0.0 | 0.00 | 0.14 | 0.00 | 95 | 1011.7 |
| 20260904044051 | 64 | 0 | 0.0 | 0.0 | 0.00 | 0.14 | 0.00 | 95 | 1011.6 |
| 20260904043554 | 64 | 0 | 0.0 | 0.0 | 0.00 | 0.14 | 0.00 | 95 | 1011.7 |
| 20260904043102 | 64 | 0 | 0.0 | 0.0 | 0.00 | 0.14 | 0.00 | 95 | 1011.7 |
| 20260904042555 | 64 | 0 | 0.0 | 0.0 | 0.00 | 0.14 | 0.00 | 95 | 1011.7 |
| 20260904042052 | 64 | 0 | 0.0 | 0.0 | 0.00 | 0.14 | 0.00 | 95 | 1011.7 |
| 20260904041612 | 64 | 0 | 0.0 | 0.0 | 0.00 | 0.14 | 0.00 | 95 | 1011.8 |
| 20260904041051 | 64 | 0 | 0.0 | 0.0 | 0.00 | 0.14 | 0.00 | 95 | 1011.8 |
| 20260904040552 | 64 | 0 | 0.0 | 0.0 | 0.00 | 0.14 | 0.00 | 95 | 1011.8 |
| 20260904040111 | 64 | 0 | 0.0 | 0.0 | 0.00 | 0.14 | 0.00 | 95 | 1011.7 |
| 20260904035550 | 64 | 0 | 0.0 | 0.0 | 0.00 | 0.14 | 0.14 | 95 | 1011.7 |
| 20260904035049 | 65 | 0 | 0.0 | 0.0 | 0.00 | 0.14 | 0.14 | 95 | 1011.9 |
| 20260904034611 | 65 | 0 | 0.0 | 0.0 | 0.00 | 0.14 | 0.14 | 95 | 1011.9 |
| 20260904034050 | 65 | 0 | 0.0 | 0.0 | 0.00 | 0.14 | 0.14 | 95 | 1011.9 |
| 20260904033552 | 65 | 0 | 0.0 | 0.0 | 0.00 | 0.14 | 0.14 | 95 | 1012.0 |
| 20260904033103 | 65 | 0 | 0.0 | 0.0 | 0.00 | 0.14 | 0.14 | 95 | 1011.9 |
| 20260904032555 | 65 | 0 | 0.0 | 0.0 | 0.00 | 0.14 | 0.14 | 95 | 1011.9 |
| 20260904032050 | 65 | 0 | 0.0 | 0.0 | 0.00 | 0.14 | 0.14 | 95 | 1012.0 |
| 20260904031603 | 65 | 0 | 0.0 | 0.0 | 0.00 | 0.14 | 0.14 | 95 | 1012.0 |
| 20260904031050 | 65 | 0 | 0.0 | 0.0 | 0.00 | 0.14 | 0.14 | 94 | 1012.1 |
| 20260904030551 | 65 | 0 | 0.0 | 0.0 | 0.00 | 0.14 | 0.14 | 94 | 1012.2 |
| 20260904030057 | 65 | 0 | 0.0 | 0.0 | 0.00 | 0.14 | 0.14 | 94 | 1012.1 |
| 20260904025551 | 65 | 0 | 0.0 | 0.0 | 0.00 | 0.14 | 0.14 | 94 | 1012.1 |
| 20260904025053 | 65 | 0 | 0.0 | 0.0 | 0.00 | 0.14 | 0.14 | 94 | 1012.2 |
| 20260904024556 | 65 | 0 | 0.0 | 0.0 | 0.00 | 0.14 | 0.14 | 94 | 1012.1 |
| 20260904024051 | 65 | 0 | 0.0 | 0.0 | 0.00 | 0.14 | 0.14 | 94 | 1012.0 |
| 20260904023551 | 65 | 0 | 0.0 | 0.0 | 0.00 | 0.14 | 0.14 | 94 | 1012.1 |
| 20260904023055 | 65 | 0 | 0.0 | 0.0 | 0.00 | 0.14 | 0.14 | 94 | 1012.2 |
| 20260904022550 | 65 | 0 | 0.0 | 0.0 | 0.00 | 0.14 | 0.14 | 94 | 1012.2 |
| 20260904022050 | 65 | 0 | 0.0 | 0.0 | 0.00 | 0.14 | 0.14 | 94 | 1012.2 |
| 20260904021607 | 65 | 0 | 0.0 | 0.0 | 0.00 | 0.14 | 0.14 | 94 | 1012.2 |
| 20260904021053 | 65 | 0 | 0.0 | 0.0 | 0.00 | 0.14 | 0.14 | 94 | 1012.3 |
| 20260904020551 | 65 | 0 | 0.0 | 0.0 | 0.00 | 0.14 | 0.14 | 94 | 1012.3 |
| 20260904020056 | 65 | 0 | 0.0 | 0.0 | 0.00 | 0.14 | 0.14 | 94 | 1012.3 |
| 20260904015552 | 65 | 0 | 0.0 | 0.0 | 0.00 | 0.14 | 0.14 | 94 | 1012.4 |
| 20260904015051 | 65 | 0 | 0.0 | 0.0 | 0.00 | 0.14 | 0.14 | 94 | 1012.3 |
| 20260904014636 | 65 | 0 | 0.0 | 0.0 | 0.00 | 0.14 | 0.14 | 94 | 1012.3 |
| 20260904014051 | 65 | 0 | 0.0 | 0.0 | 0.00 | 0.14 | 0.14 | 94 | 1012.3 |
| 20260904013554 | 65 | 0 | 0.0 | 0.0 | 0.00 | 0.14 | 0.14 | 94 | 1012.4 |
| 20260904013101 | 65 | 0 | 0.0 | 0.0 | 0.00 | 0.14 | 0.14 | 94 | 1012.5 |
| 20260904012550 | 65 | 0 | 0.0 | 0.0 | 0.00 | 0.14 | 0.14 | 94 | 1012.3 |
| 20260904012052 | 65 | 0 | 0.0 | 0.0 | 0.00 | 0.14 | 0.14 | 94 | 1012.2 |
| 20260904011628 | 65 | 0 | 0.0 | 0.0 | 0.00 | 0.14 | 0.14 | 94 | 1012.3 |
| 20260904011055 | 65 | 0 | 0.0 | 0.0 | 0.00 | 0.14 | 0.14 | 94 | 1012.2 |
| 20260904010551 | 65 | 0 | 0.0 | 0.0 | 0.00 | 0.14 | 0.14 | 94 | 1012.4 |
| 20260904010107 | 65 | 0 | 0.0 | 0.0 | 0.00 | 0.14 | 0.14 | 94 | 1012.4 |
| 20260904005551 | 65 | 0 | 0.0 | 0.0 | 0.00 | 0.14 | 0.14 | 94 | 1012.2 |
| 20260904005051 | 65 | 0 | 0.0 | 0.0 | 0.00 | 0.14 | 0.14 | 93 | 1012.3 |
| 20260904004559 | 65 | 0 | 0.0 | 0.0 | 0.00 | 0.14 | 0.14 | 93 | 1012.3 |
| 20260904004051 | 65 | 0 | 0.0 | 0.0 | 0.00 | 0.14 | 0.14 | 93 | 1012.0 |
| 20260904003550 | 65 | 0 | 0.0 | 0.0 | 0.00 | 0.14 | 0.14 | 93 | 1012.0 |
| 20260904003102 | 65 | 0 | 0.0 | 0.0 | 0.00 | 0.14 | 0.14 | 93 | 1011.9 |
| 20260904002551 | 65 | 0 | 0.0 | 0.0 | 0.00 | 0.14 | 0.14 | 93 | 1012.0 |
| 20260904002051 | 65 | 0 | 0.0 | 0.0 | 0.00 | 0.14 | 0.14 | 93 | 1012.2 |
| 20260904001600 | 65 | 0 | 0.0 | 0.0 | 0.00 | 0.14 | 0.14 | 93 | 1011.9 |
| 20260904001052 | 65 | 0 | 0.0 | 0.0 | 0.00 | 0.14 | 0.14 | 93 | 1011.8 |
| 20260904000550 | 65 | 0 | 0.0 | 0.0 | 0.00 | 0.14 | 0.14 | 93 | 1011.7 |
| 20260903235551 | 66 | 0 | 0.0 | 0.0 | 0.00 | 0.14 | 0.14 | 92 | 1011.6 |
| 20260903235047 | 66 | 0 | 0.0 | 0.0 | 0.00 | 0.14 | 0.14 | 92 | 1011.5 |
| 20260903234600 | 66 | 0 | 0.0 | 0.0 | 0.00 | 0.14 | 0.14 | 92 | 1011.6 |
| 20260903234052 | 66 | 0 | 0.0 | 0.0 | 0.00 | 0.14 | 0.14 | 92 | 1011.7 |
| 20260903233551 | 66 | 0 | 0.0 | 0.0 | 0.00 | 0.14 | 0.14 | 92 | 1011.4 |
| 20260903233111 | 66 | 0 | 0.0 | 0.0 | 0.00 | 0.14 | 0.14 | 92 | 1011.4 |
| 20260903232550 | 66 | 0 | 0.0 | 0.0 | 0.00 | 0.14 | 0.14 | 91 | 1011.5 |
| 20260903232050 | 66 | 0 | 0.0 | 0.0 | 0.00 | 0.14 | 0.14 | 91 | 1011.2 |
| 20260903231556 | 66 | 0 | 0.0 | 0.0 | 0.00 | 0.14 | 0.14 | 91 | 1011.6 |
| 20260903231049 | 66 | 0 | 0.0 | 0.0 | 0.00 | 0.14 | 0.14 | 91 | 1011.8 |
| 20260903230551 | 66 | 0 | 0.0 | 0.0 | 0.00 | 0.14 | 0.14 | 91 | 1011.9 |
| 20260903230056 | 66 | 0 | 0.0 | 0.0 | 0.00 | 0.14 | 0.14 | 90 | 1011.5 |
| 20260903225700 | 67 | 0 | 0.0 | 0.0 | 0.00 | 0.14 | 0.14 | 90 | 1011.5 |
| 20260903225557 | 67 | 0 | 0.0 | 0.0 | 0.00 | 0.14 | 0.14 | 90 | 1011.5 |
| 20260903225051 | 67 | 0 | 0.0 | 0.0 | 0.00 | 0.14 | 0.14 | 90 | 1011.8 |
| 20260903224559 | 67 | 0 | 0.0 | 0.0 | 0.00 | 0.14 | 0.14 | 89 | 1012.0 |
| 20260903224052 | 67 | 0 | 0.0 | 0.0 | 0.00 | 0.14 | 0.14 | 89 | 1011.9 |
| 20260903223551 | 67 | 0 | 0.0 | 0.0 | 0.00 | 0.14 | 0.14 | 88 | 1012.1 |
| 20260903223115 | 67 | 0 | 0.0 | 0.0 | 0.00 | 0.14 | 0.14 | 88 | 1012.2 |
| 20260903222552 | 68 | 0 | 0.0 | 0.0 | 0.00 | 0.14 | 0.14 | 88 | 1012.0 |
| 20260903222053 | 68 | 0 | 0.0 | 0.0 | 0.00 | 0.14 | 0.14 | 87 | 1011.9 |
| 20260903221607 | 68 | 0 | 0.0 | 0.0 | 0.00 | 0.14 | 0.14 | 87 | 1011.7 |
| 20260903221051 | 68 | 0 | 0.0 | 0.0 | 0.00 | 0.14 | 0.14 | 86 | 1011.7 |
| 20260903220551 | 68 | 0 | 0.0 | 0.0 | 0.00 | 0.14 | 0.14 | 86 | 1012.1 |
| 20260903220127 | 68 | 0 | 0.0 | 0.0 | 0.00 | 0.14 | 0.14 | 86 | 1012.0 |
| 20260903215552 | 68 | 0 | 0.0 | 0.0 | 0.00 | 0.14 | 0.14 | 86 | 1011.9 |
| 20260903215051 | 68 | 0 | 0.0 | 0.0 | 0.00 | 0.14 | 0.14 | 86 | 1012.0 |
| 20260903214601 | 68 | 0 | 0.0 | 0.0 | 0.00 | 0.14 | 0.14 | 86 | 1012.2 |
| 20260903214052 | 68 | 0 | 0.0 | 0.0 | 0.00 | 0.14 | 0.14 | 86 | 1012.1 |
| 20260903213551 | 68 | 0 | 0.0 | 0.0 | 0.00 | 0.14 | 0.14 | 86 | 1012.1 |
| 20260903213054 | 68 | 0 | 0.0 | 0.0 | 0.00 | 0.14 | 0.14 | 86 | 1012.2 |
| 20260903212552 | 68 | 0 | 0.0 | 0.0 | 0.00 | 0.14 | 0.14 | 85 | 1012.0 |
| 20260903212052 | 68 | 0 | 0.0 | 0.0 | 0.00 | 0.14 | 0.14 | 85 | 1012.0 |
| 20260903211605 | 68 | 0 | 0.0 | 0.0 | 0.00 | 0.14 | 0.14 | 85 | 1012.1 |
| 20260903211053 | 68 | 0 | 0.0 | 0.0 | 0.00 | 0.14 | 0.14 | 85 | 1012.1 |
| 20260903210552 | 68 | 0 | 0.0 | 0.0 | 0.00 | 0.14 | 0.14 | 85 | 1012.2 |
| 20260903210112 | 69 | 0 | 0.0 | 0.0 | 0.00 | 0.14 | 0.14 | 85 | 1011.9 |
| 20260903205551 | 69 | 0 | 0.0 | 0.0 | 0.00 | 0.15 | 0.14 | 85 | 1012.1 |
| 20260903205051 | 69 | 0 | 0.0 | 0.0 | 0.00 | 0.15 | 0.14 | 85 | 1012.0 |
| 20260903204556 | 69 | 0 | 0.0 | 0.0 | 0.00 | 0.15 | 0.14 | 85 | 1012.3 |
| 20260903204051 | 69 | 0 | 0.0 | 0.0 | 0.00 | 0.15 | 0.14 | 85 | 1012.1 |
| 20260903203552 | 69 | 0 | 0.0 | 0.0 | 0.00 | 0.15 | 0.14 | 84 | 1012.2 |
| 20260903203106 | 69 | 0 | 0.0 | 0.0 | 0.00 | 0.15 | 0.14 | 84 | 1012.2 |
| 20260903202552 | 69 | 0 | 0.0 | 0.0 | 0.00 | 0.15 | 0.14 | 86 | 1012.3 |
| 20260903202054 | 68 | 0 | 0.0 | 0.0 | 0.00 | 0.15 | 0.14 | 86 | 1012.3 |
| 20260903201603 | 68 | 0 | 0.0 | 0.0 | 0.00 | 0.15 | 0.14 | 86 | 1012.3 |
| 20260903201051 | 68 | 0 | 0.0 | 0.0 | 0.00 | 0.15 | 0.14 | 85 | 1012.2 |
| 20260903200551 | 68 | 0 | 0.0 | 0.0 | 0.00 | 0.15 | 0.14 | 85 | 1012.3 |
| 20260903200111 | 68 | 0 | 0.0 | 0.0 | 0.00 | 0.15 | 0.14 | 85 | 1012.3 |